Regional Weather Roundup
Issued by NWS

Home | Current Version | Previous Version | Graphics & Text | Print | Product List | Glossary On
Versions: 1 2 3 4 5 6 7 8 9 10 11 12 13 14 15 16 17 18 19 20 21 22 23 24 25 26 27 28 29 30 31 32 33 34 35 36 37 38 39 40 41 42 43 44 45 46 47 48 49 50
787
ASUS45 KTFX 090410
RWRMT
MONTANA REGIONAL WEATHER ROUNDUP
NATIONAL WEATHER SERVICE GREAT FALLS MT
900 PM MST THU DEC 08 2016

NOTE: "FAIR" INDICATES FEW OR NO CLOUDS BELOW 12000 FEET WITH NO
SIGNIFICANT WEATHER AND/OR OBSTRUCTIONS TO VISIBILITY.

MTZ001>007-043-090500-
WEST OF THE DIVIDE

CITY           SKY/WX    TMP DP  RH WIND       PRES   REMARKS
KALISPELL      PTCLDY     6  -4  63 N18       30.18F WCI -13
MISSOULA       CLOUDY    14   5  67 NE6       30.14F WCI   5
BUTTE          LGT SNOW   8   1  73 CALM      30.01R
MULLAN PASS    CLOUDY     1  -3  83 E8        29.87S WCI -13
ANACONDA         N/A     10   1  67 E5        30.02F
DEER LODGE       N/A      7  -2  66 N3        30.08R
EUREKA           N/A    -11 -17  77 CALM      30.28F
HAMILTON         N/A     14   9  79 S3        30.08F
LIBBY            N/A     10   5  79 CALM      30.23S
RONAN            N/A     13   6  73 CALM      30.17S
$$

MTZ008-052>055-090500-
SOUTHWEST MONTANA

CITY           SKY/WX    TMP DP  RH WIND       PRES   REMARKS
BOZEMAN        CLOUDY     7   1  76 NW5       30.13F
DILLON         LGT SNOW   7   2  80 NE7       30.03R WCI  -5
W YELLOWSTONE  FLURRIES   5   1  85 CALM      30.00F
ENNIS          CLOUDY     9   3  78 N7        30.06F HAZE    WCI  -3
THREE FORKS      N/A      6 -44   8 CALM      30.13S
$$

MTZ009-010-012-014-046-048-049-054-090500-
EAST SLOPES AND CENTRAL MONTANA

CITY           SKY/WX    TMP DP  RH WIND       PRES   REMARKS
CUT BANK       CLOUDY    -4  -8  83 NE5       30.30F
GREAT FALLS    CLOUDY    -3  -8  79 NE7       30.31S WCI -16
MALMSTROM AFB  LGT SNOW  -3  -6  87 NE5       30.34F
HELENA         CLOUDY     1  -7  68 W7        30.24S WCI -12
AUGUSTA        FLURRIES  -4  -8  85 NE5       30.22F
BOWMANS CRNR   FLURRIES  -5  -8  85 N6        30.21F WCI -17
CHOTEAU          N/A     -2  -6  84 MISG      30.30F
FAIRFIELD      FLURRIES  -4  -8  81 E5        30.28F
POWER          MOCLDY   -10 -14  81 E3        30.30R
RAYNESFORD     LGT SNOW  -4  -8  81 NW3       30.27S
ULM            FLURRIES  -3  -7  82 N10       30.32F WCI -19
$$

MTZ011-013-016-021-045-047-050-051-090500-
NORTH CENTRAL MONTANA

CITY           SKY/WX    TMP DP  RH WIND       PRES   REMARKS
HAVRE          CLOUDY     0  -7  72 NE6       30.46F WCI -12
LEWISTOWN      CLOUDY    -6 -10  83 SE6       30.24F WCI -19
N BAR RANCH      N/A     -6 -11  77 CALM      30.24S
CHINOOK          N/A      1  -6  71 NE3       30.50S
DENTON         FLURRIES  -1  -5  84 E18       30.28S WCI -23
GEYSER         FLURRIES  -2  -5  84 NE8       30.26S WCI -16
GRASS RANGE      N/A     -5  -9  86 W2        30.27F
JUDITH GAP     MOCLDY     1  -4  79 S13       30.17F WCI -17
ROY              N/A     -4  -8  85 MISG      30.32F
STANFORD       FLURRIES  -3  -6  87 NE8       30.21F WCI -18
WINIFRED         N/A     -5  -7  88 MISG      30.30F
$$

MTZ017>020-022>027-061-062-090500-
NORTHEAST MONTANA

CITY           SKY/WX    TMP DP  RH WIND       PRES   REMARKS
GLASGOW        MOCLDY    -4 -10  75 NE10      30.50F WCI -21
JORDAN           N/A     -1  -6  79 SE6       30.46S WCI -13
SIDNEY         CLOUDY   -12 -16  82 NW3       30.58R
WOLF POINT     CLOUDY   -11 -17  75 CALM      30.57S
PLENTYWOOD       N/A     -9 -15  77 NW5       30.54R
POPLAR           N/A    -11 -17  77 N3        30.58S
$$

MTZ028>42-056>058-090500-
SOUTHCENTRAL AND SOUTHEAST MONTANA

CITY           SKY/WX    TMP DP  RH WIND       PRES   REMARKS
BAKER          CLOUDY   -15 -20  78 SE3       30.44F
BILLINGS       CLOUDY     2  -4  76 NE8       30.27F WCI -12
LIVINGSTON     CLOUDY     4  -2  76 E10       30.15F WCI -11
MILES CITY     CLEAR     -4 -10  75 NE7       30.45F WCI -18
BIG TIMBER     CLOUDY     3   0  85 E6        30.21F WCI  -8
FORSYTH          N/A      0  -6  78 NE7       30.41F WCI -13
HARLOWTON      CLOUDY     3  -3  75 E10       30.21F WCI -12
LAUREL           N/A      3  -8  60 N6        30.21F WCI  -8
$$

REGIONAL REPORTS...DAKOTAS

CITY           SKY/WX    TMP DP  RH WIND       PRES   REMARKS
WILLISTON      CLOUDY   -12 -16  82 CALM      30.58S
MINOT          CLOUDY    -6 -11  79 W10       30.56F WCI -24
DICKINSON      CLOUDY   -12 -15  86 W6        30.47S WCI -26
BEACH            N/A    -15 -18  84 CALM      30.50S
CROSBY           N/A     -9 -15  77 W9        30.58S WCI -27
TIOGA            N/A    -13 -17  84 W5        30.54S
WATFORD CITY     N/A    -17 -20  83 CALM      30.56S
BISMARCK       CLOUDY    -4  -8  83 SW5       30.60F
GRAND FORKS    CLOUDY    10   4  76 NW12      30.58S WCI  -5
FARGO          CLOUDY     7   0  73 W9        30.59S WCI  -7
BUFFALO SD       N/A     -6 -10  83 CALM      30.35F
RAPID CITY     CLOUDY    -6 -10  83 CALM      30.42F
$$

REGIONAL REPORTS...WYOMING/IDAHO/WASHINGTON

CITY           SKY/WX    TMP DP  RH WIND       PRES   REMARKS
GILLETTE       CLOUDY    -4  -8  83 S7        30.22F WCI -18
SHERIDAN       CLOUDY    -2  -8  76 CALM      30.23F
BUFFALO WY     CLOUDY     0  -7  72 SE5       30.14F
CODY           CLOUDY    -4  -9  79 S3        30.12F
YELLOWSTONE LA   N/A      5   2  87 CALM      29.97F
IDAHO FALLS    CLOUDY    17  14  88 N5        30.10F
SALMON         CLOUDY    12   9  85 CALM      30.08F
BOISE          FLURRIES  27  24  89 SE10      30.05S WCI  17
SPOKANE        CLOUDY    19   5  54 NE8       30.09S WCI   9
$$

REGIONAL REPORTS...ALBERTA

CITY           SKY/WX    TMP DP  RH WIND       PRES   REMARKS
EDMONTON       MOCLDY    -8 -15  71 E3        30.56S
CALGARY        CRYSTALS  -8 -13  77 S5        30.35F
LETHBRIDGE     FLURRIES  -6  -9  84 S5        30.43S
MEDICINE HAT   LGT SNOW -13 -18  77 NE3       30.53S
WATERTON GATE    N/A     -8 -13  77 NE3         N/A
CARDSTON         N/A    -11 -17  77 W1          N/A
MILK RIVER       N/A     -6  -9  84 NE2         N/A
ONEFOUR          N/A     -4  -9  77 E1          N/A
$$

REGIONAL REPORTS...SASKATCHEWAN

CITY           SKY/WX    TMP DP  RH WIND       PRES   REMARKS
SWIFT CURRENT  FLURRIES  -6  -9  84 VRB2      30.47S
REGINA         PTCLDY   -13 -17  84 NW6       30.57R WCI -27
SASKATOON      CRYSTALS -11 -17  77 N7        30.64S WCI -26
CYPRESS HILLS    N/A    -13 -18  77 NE2         N/A
ROCKGLEN         N/A     -6  -9  84 N6          N/A  WCI -18
$$




USA.gov is the U.S. government's official web portal to all federal, state and local government web resources and services.